Regional Weather Roundup
Issued by NWS Sioux Falls, SD

Home | Current Version | Previous Version | Text Only | Print | Product List | Glossary On
Versions: 1 2 3 4 5 6 7 8 9 10 11 12 13 14 15 16 17 18 19 20 21 22 23 24 25 26 27 28 29 30 31 32 33 34 35 36 37 38 39 40 41 42 43 44 45 46 47 48 49 50
880
ASUS43 KFSD 261510
RWRFSD

WEATHER ROUNDUP FOR SE SOUTH DAKOTA/SW MINNESOTA/NW IOWA
NATIONAL WEATHER SERVICE SIOUX FALLS SD
1000 AM CDT TUE JUL 26 2016

NOTE: "FAIR" INDICATES FEW OR NO CLOUDS BELOW 12,000 FEET WITH NO
SIGNIFICANT WEATHER AND OR OBSTRUCTIONS TO VISIBILITY.


SDZ038>040-050-052>070-261600-
SOUTHEAST SOUTH DAKOTA

CITY           SKY/WX    TMP DP  RH WIND       PRES   REMARKS
BROOKINGS      SUNNY     77  67  71 SW9       30.07R HAZE
CHAMBERLAIN    SUNNY     83  69  60 SW8       30.02S
HURON          SUNNY     80  64  58 S10       30.02S
MADISON        FAIR      75  68  78 SW8       30.09R
MITCHELL       SUNNY     80  65  59 S8        30.05R
SIOUX FALLS    MOSUNNY   78  65  63 SW13      30.07R
WINNER         FAIR      84  63  49 SW18G24   30.02S
YANKTON        SUNNY     79  66  65 S9        30.05R
$$

MNZ071-072-080-081-089-090-097-098-261600-
SOUTHWEST MINNESOTA

CITY           SKY/WX    TMP DP  RH WIND       PRES   REMARKS
FAIRMONT       SUNNY     79  63  57 S6        30.07S
JACKSON        SUNNY     79  64  61 SW8       30.09S
LUVERNE        SUNNY     77  66  69 SW7       30.09R
MARSHALL       SUNNY     80  65  59 NW10      30.05R
MONTEVIDEO     MOSUNNY   81  66  61 SW3       30.05F
PIPESTONE      SUNNY     77  66  69 SW10      30.09R
REDWOOD FALLS  SUNNY     81  65  58 SW7       30.04R
TRACY          SUNNY     80  68  66 SW15G21   30.04S
WINDOM         SUNNY     79  66  65 SW9       30.07S
WORTHINGTON    SUNNY     78  66  66 SW13      30.09R
$$

IAZ001>003-012>014-020>022-031-032-NEZ013-014-SDZ071-261600-
NORTHWEST IOWA

CITY           SKY/WX    TMP DP  RH WIND       PRES   REMARKS
CHEROKEE       SUNNY     78  68  70 S9        30.08F
DENISON        SUNNY     79  68  69 S7        30.07F
ESTHERVILLE    SUNNY     77  67  71 SW8       30.08S
LE MARS        SUNNY     79  68  69 S8        30.08S
SHELDON        SUNNY     77  68  73 S9        30.07S
SIOUX CITY     SUNNY     80  68  66 VRB5      30.07S
SPENCER        SUNNY     79  67  66 S7        30.08S
STORM LAKE     SUNNY     79  66  65 S7        30.10S
$$

ABBREVIATIONS USED IN REMARKS
   TC - TEMPERATURE IN CELSIUS
  WCI - WIND CHILL INDEX
   HX - HEAT INDEX
  VSB - VISIBILITY





USA.gov is the U.S. government's official web portal to all federal, state and local government web resources and services.